Time,TemperatureF,DewpointF,PressureIn,WindDirection,WindDirectionDegrees,WindSpeedMPH,WindSpeedGustMPH,Humidity,HourlyPrecipIn,Conditions,Clouds,dailyrainin,SoftwareType,DateUTC
2013-05-03 00:03:00,43.0,39.0,30.48,North,359,0.0,1.0,87,0.00,,,0.00,,2013-05-03 04:03:00,
2013-05-03 00:13:00,43.0,39.0,30.48,North,359,0.0,1.0,87,0.00,,,0.00,,2013-05-03 04:13:00,
2013-05-03 00:23:00,42.0,39.0,30.48,North,354,0.0,0.0,89,0.00,,,0.00,,2013-05-03 04:23:00,
2013-05-03 00:32:00,42.0,39.0,30.48,NNW,347,0.0,0.0,89,0.00,,,0.00,,2013-05-03 04:32:00,
2013-05-03 00:43:00,42.0,39.0,30.48,NNW,347,0.0,0.0,89,0.00,,,0.00,,2013-05-03 04:43:00,
2013-05-03 00:53:00,42.0,39.0,30.47,NNW,347,0.0,0.0,90,0.00,,,0.00,,2013-05-03 04:53:00,
2013-05-03 01:02:00,42.0,39.0,30.47,NNW,341,0.0,0.0,90,0.00,,,0.00,,2013-05-03 05:02:00,
2013-05-03 01:12:00,42.0,39.0,30.47,NNW,341,0.0,0.0,90,0.00,,,0.00,,2013-05-03 05:12:00,
2013-05-03 01:22:00,41.0,38.0,30.47,NW,316,0.0,2.0,90,0.00,,,0.00,,2013-05-03 05:22:00,
2013-05-03 01:32:00,41.0,38.0,30.47,NW,308,1.0,3.0,90,0.00,,,0.00,,2013-05-03 05:32:00,
2013-05-03 01:42:00,41.0,38.0,30.47,NW,308,1.0,3.0,90,0.00,,,0.00,,2013-05-03 05:42:00,
2013-05-03 01:52:00,44.0,40.0,30.46,North,6,2.0,4.0,87,0.00,,,0.00,,2013-05-03 05:52:00,
2013-05-03 02:02:00,45.0,41.0,30.46,NNE,13,2.0,4.0,85,0.00,,,0.00,,2013-05-03 06:02:00,
2013-05-03 02:12:00,45.0,41.0,30.46,NNE,13,2.0,4.0,85,0.00,,,0.00,,2013-05-03 06:12:00,
2013-05-03 02:21:00,45.0,40.0,30.46,NW,316,3.0,7.0,83,0.00,,,0.00,,2013-05-03 06:21:00,
2013-05-03 02:32:00,45.0,40.0,30.45,NNE,18,3.0,6.0,83,0.00,,,0.00,,2013-05-03 06:32:00,
2013-05-03 02:42:00,45.0,40.0,30.45,NNE,18,3.0,6.0,83,0.00,,,0.00,,2013-05-03 06:42:00,
2013-05-03 02:52:00,45.0,40.0,30.45,North,10,3.0,5.0,84,0.00,,,0.00,,2013-05-03 06:52:00,
2013-05-03 03:01:00,45.0,40.0,30.45,NNE,12,4.0,8.0,84,0.00,,,0.00,,2013-05-03 07:01:00,
2013-05-03 03:11:00,45.0,40.0,30.45,NNE,12,4.0,8.0,84,0.00,,,0.00,,2013-05-03 07:11:00,
2013-05-03 03:22:00,45.0,41.0,30.45,North,356,3.0,5.0,85,0.00,,,0.00,,2013-05-03 07:22:00,
2013-05-03 03:32:00,45.0,41.0,30.45,North,9,2.0,5.0,86,0.00,,,0.00,,2013-05-03 07:32:00,
2013-05-03 03:42:00,45.0,41.0,30.45,North,9,2.0,5.0,86,0.00,,,0.00,,2013-05-03 07:42:00,
2013-05-03 03:52:00,45.0,41.0,30.46,NNW,347,3.0,5.0,86,0.00,,,0.00,,2013-05-03 07:52:00,
2013-05-03 04:02:00,45.0,41.0,30.46,North,358,3.0,7.0,86,0.00,,,0.00,,2013-05-03 08:02:00,
2013-05-03 04:12:00,45.0,41.0,30.46,North,358,3.0,7.0,86,0.00,,,0.00,,2013-05-03 08:12:00,
2013-05-03 04:21:00,45.0,41.0,30.47,NNE,21,2.0,5.0,86,0.00,,,0.00,,2013-05-03 08:21:00,
2013-05-03 04:32:00,45.0,41.0,30.47,NW,321,3.0,5.0,86,0.00,,,0.00,,2013-05-03 08:32:00,
2013-05-03 04:42:00,45.0,41.0,30.47,NW,321,3.0,5.0,86,0.00,,,0.00,,2013-05-03 08:42:00,
2013-05-03 04:53:00,45.0,41.0,30.47,North,9,2.0,6.0,86,0.00,,,0.00,,2013-05-03 08:53:00,
2013-05-03 05:01:00,45.0,41.0,30.47,NNE,12,3.0,5.0,87,0.00,,,0.00,,2013-05-03 09:01:00,
2013-05-03 05:12:00,45.0,41.0,30.47,NNE,12,3.0,5.0,87,0.00,,,0.00,,2013-05-03 09:12:00,
2013-05-03 05:21:00,44.0,41.0,30.48,NNE,14,2.0,4.0,88,0.00,,,0.00,,2013-05-03 09:21:00,
2013-05-03 05:32:00,44.0,41.0,30.47,NNE,27,2.0,6.0,88,0.00,,,0.00,,2013-05-03 09:32:00,
2013-05-03 05:42:00,44.0,41.0,30.47,NNE,27,2.0,6.0,88,0.00,,,0.00,,2013-05-03 09:42:00,
2013-05-03 05:53:00,44.0,41.0,30.48,NNW,342,2.0,6.0,89,0.00,,,0.00,,2013-05-03 09:53:00,
2013-05-03 06:03:00,43.0,39.0,30.49,NW,305,1.0,3.0,87,0.00,,,0.00,,2013-05-03 10:03:00,
2013-05-03 06:12:00,43.0,39.0,30.49,NW,305,1.0,3.0,87,0.00,,,0.00,,2013-05-03 10:12:00,
2013-05-03 06:22:00,42.0,39.0,30.49,NW,326,0.0,2.0,89,0.00,,,0.00,,2013-05-03 10:22:00,
2013-05-03 06:32:00,41.0,39.0,30.49,NW,305,0.0,2.0,91,0.00,,,0.00,,2013-05-03 10:32:00,
2013-05-03 06:42:00,41.0,39.0,30.49,NW,305,0.0,2.0,91,0.00,,,0.00,,2013-05-03 10:42:00,
2013-05-03 06:52:00,43.0,41.0,30.50,NNW,335,0.0,3.0,91,0.00,,,0.00,,2013-05-03 10:52:00,
2013-05-03 07:02:00,45.0,41.0,30.50,NNW,336,3.0,5.0,87,0.00,,,0.00,,2013-05-03 11:02:00,
2013-05-03 07:11:00,45.0,41.0,30.50,NNW,336,3.0,5.0,87,0.00,,,0.00,,2013-05-03 11:11:00,
2013-05-03 07:22:00,46.0,42.0,30.51,North,6,2.0,8.0,86,0.00,,,0.00,,2013-05-03 11:22:00,
2013-05-03 07:32:00,46.0,41.0,30.51,North,357,4.0,10.0,84,0.00,,,0.00,,2013-05-03 11:32:00,
2013-05-03 07:42:00,46.0,41.0,30.51,North,357,4.0,10.0,84,0.00,,,0.00,,2013-05-03 11:42:00,
2013-05-03 07:52:00,47.0,41.0,30.52,NNE,16,3.0,6.0,81,0.00,,,0.00,,2013-05-03 11:52:00,
2013-05-03 08:02:00,47.0,41.0,30.52,ENE,57,2.0,6.0,81,0.00,,,0.00,,2013-05-03 12:02:00,
2013-05-03 08:12:00,47.0,41.0,30.52,ENE,57,2.0,6.0,81,0.00,,,0.00,,2013-05-03 12:12:00,
2013-05-03 08:21:00,47.0,41.0,30.52,NNE,13,3.0,8.0,81,0.00,,,0.00,,2013-05-03 12:21:00,
2013-05-03 08:32:00,47.0,41.0,30.52,ENE,77,3.0,7.0,80,0.00,,,0.00,,2013-05-03 12:32:00,
2013-05-03 08:42:00,47.0,41.0,30.52,ENE,77,3.0,7.0,80,0.00,,,0.00,,2013-05-03 12:42:00,
2013-05-03 08:52:00,48.0,42.0,30.52,ENE,67,3.0,10.0,80,0.00,,,0.00,,2013-05-03 12:52:00,
2013-05-03 09:01:00,48.0,42.0,30.52,NE,49,1.0,6.0,79,0.00,,,0.00,,2013-05-03 13:01:00,
2013-05-03 09:11:00,48.0,42.0,30.52,NE,49,1.0,6.0,79,0.00,,,0.00,,2013-05-03 13:11:00,
2013-05-03 09:22:00,48.0,41.0,30.52,North,357,5.0,10.0,77,0.00,,,0.00,,2013-05-03 13:22:00,
2013-05-03 09:32:00,48.0,42.0,30.53,NNW,337,3.0,8.0,79,0.00,,,0.00,,2013-05-03 13:32:00,
2013-05-03 09:42:00,48.0,42.0,30.53,NNW,337,3.0,8.0,79,0.00,,,0.00,,2013-05-03 13:42:00,
2013-05-03 09:52:00,48.0,41.0,30.53,ENE,70,4.0,8.0,77,0.00,,,0.00,,2013-05-03 13:52:00,
2013-05-03 10:02:00,48.0,41.0,30.53,NNE,23,3.0,9.0,78,0.00,,,0.00,,2013-05-03 14:02:00,
2013-05-03 10:11:00,48.0,41.0,30.53,NNE,23,3.0,9.0,78,0.00,,,0.00,,2013-05-03 14:11:00,
2013-05-03 10:22:00,48.0,42.0,30.52,ENE,59,2.0,7.0,79,0.00,,,0.00,,2013-05-03 14:22:00,
2013-05-03 10:32:00,48.0,42.0,30.52,NW,315,4.0,8.0,79,0.00,,,0.00,,2013-05-03 14:32:00,
2013-05-03 10:42:00,48.0,42.0,30.52,NW,315,4.0,8.0,79,0.00,,,0.00,,2013-05-03 14:42:00,
2013-05-03 10:52:00,48.0,41.0,30.53,NNW,336,6.0,9.0,78,0.00,,,0.00,,2013-05-03 14:52:00,
2013-05-03 11:01:00,48.0,41.0,30.53,NE,36,3.0,4.0,78,0.00,,,0.00,,2013-05-03 15:01:00,
2013-05-03 11:11:00,48.0,41.0,30.53,NE,36,3.0,4.0,78,0.00,,,0.00,,2013-05-03 15:11:00,
2013-05-03 11:22:00,48.0,41.0,30.53,NW,321,2.0,4.0,78,0.00,,,0.00,,2013-05-03 15:22:00,
2013-05-03 11:32:00,48.0,42.0,30.53,East,100,2.0,8.0,79,0.00,,,0.00,,2013-05-03 15:32:00,
2013-05-03 11:43:00,48.0,42.0,30.53,East,100,2.0,8.0,79,0.00,,,0.00,,2013-05-03 15:43:00,
2013-05-03 11:53:00,48.0,41.0,30.52,NW,323,3.0,8.0,78,0.00,,,0.00,,2013-05-03 15:53:00,
2013-05-03 12:03:00,49.0,42.0,30.51,WNW,298,3.0,8.0,76,0.00,,,0.00,,2013-05-03 16:03:00,
2013-05-03 12:13:00,49.0,42.0,30.51,WNW,298,3.0,8.0,76,0.00,,,0.00,,2013-05-03 16:13:00,
2013-05-03 12:23:00,50.0,42.0,30.51,North,349,6.0,10.0,75,0.00,,,0.00,,2013-05-03 16:23:00,
2013-05-03 12:33:00,50.0,42.0,30.50,NNW,328,3.0,9.0,75,0.00,,,0.00,,2013-05-03 16:33:00,
2013-05-03 12:42:00,50.0,42.0,30.50,NNW,328,3.0,9.0,75,0.00,,,0.00,,2013-05-03 16:42:00,
2013-05-03 12:52:00,51.0,43.0,30.49,WNW,293,4.0,10.0,75,0.00,,,0.00,,2013-05-03 16:52:00,
2013-05-03 13:02:00,51.0,43.0,30.49,ESE,107,3.0,9.0,75,0.00,,,0.00,,2013-05-03 17:02:00,
2013-05-03 13:12:00,51.0,43.0,30.49,ESE,107,3.0,9.0,75,0.00,,,0.00,,2013-05-03 17:12:00,
2013-05-03 13:23:00,51.0,43.0,30.49,ENE,64,4.0,9.0,74,0.00,,,0.00,,2013-05-03 17:23:00,
2013-05-03 13:32:00,52.0,44.0,30.48,NNE,12,3.0,7.0,74,0.00,,,0.00,,2013-05-03 17:32:00,
2013-05-03 13:42:00,52.0,44.0,30.48,NNE,12,3.0,7.0,74,0.00,,,0.00,,2013-05-03 17:42:00,
2013-05-03 13:52:00,52.0,44.0,30.47,NNW,344,2.0,5.0,73,0.00,,,0.00,,2013-05-03 17:52:00,
2013-05-03 14:01:00,53.0,43.0,30.47,North,357,5.0,9.0,70,0.00,,,0.00,,2013-05-03 18:01:00,
2013-05-03 14:12:00,53.0,43.0,30.47,North,357,5.0,9.0,70,0.00,,,0.00,,2013-05-03 18:12:00,
2013-05-03 14:22:00,53.0,44.0,30.47,NNW,345,3.0,6.0,71,0.00,,,0.00,,2013-05-03 18:22:00,
2013-05-03 14:32:00,53.0,44.0,30.47,NNW,336,3.0,7.0,71,0.00,,,0.00,,2013-05-03 18:32:00,
2013-05-03 14:42:00,53.0,44.0,30.47,NNW,336,3.0,7.0,71,0.00,,,0.00,,2013-05-03 18:42:00,
2013-05-03 14:52:00,54.0,44.0,30.46,North,360,4.0,8.0,69,0.00,,,0.00,,2013-05-03 18:52:00,
2013-05-03 15:01:00,53.0,43.0,30.46,NW,309,3.0,7.0,69,0.00,,,0.00,,2013-05-03 19:01:00,
2013-05-03 15:11:00,53.0,43.0,30.46,NW,309,3.0,7.0,69,0.00,,,0.00,,2013-05-03 19:11:00,
2013-05-03 15:21:00,53.0,43.0,30.45,North,354,3.0,5.0,70,0.00,,,0.00,,2013-05-03 19:21:00,
2013-05-03 15:32:00,54.0,44.0,30.44,NNE,18,2.0,6.0,68,0.00,,,0.00,,2013-05-03 19:32:00,
2013-05-03 15:42:00,54.0,44.0,30.44,NNE,18,2.0,6.0,68,0.00,,,0.00,,2013-05-03 19:42:00,
2013-05-03 15:52:00,53.0,43.0,30.44,WNW,295,2.0,5.0,70,0.00,,,0.00,,2013-05-03 19:52:00,
2013-05-03 16:02:00,53.0,43.0,30.44,ESE,114,2.0,7.0,70,0.00,,,0.00,,2013-05-03 20:02:00,
2013-05-03 16:12:00,53.0,43.0,30.44,ESE,114,2.0,7.0,70,0.00,,,0.00,,2013-05-03 20:12:00,
2013-05-03 16:21:00,54.0,44.0,30.43,NNE,19,1.0,6.0,70,0.00,,,0.00,,2013-05-03 20:21:00,
2013-05-03 16:32:00,53.0,44.0,30.43,West,269,2.0,8.0,71,0.00,,,0.00,,2013-05-03 20:32:00,
2013-05-03 16:42:00,53.0,44.0,30.43,West,269,2.0,8.0,71,0.00,,,0.00,,2013-05-03 20:42:00,
2013-05-03 16:52:00,53.0,43.0,30.43,NE,37,2.0,8.0,70,0.00,,,0.00,,2013-05-03 20:52:00,
2013-05-03 17:01:00,54.0,44.0,30.42,NNW,334,3.0,6.0,68,0.00,,,0.00,,2013-05-03 21:01:00,
2013-05-03 17:11:00,54.0,44.0,30.42,NNW,334,3.0,6.0,68,0.00,,,0.00,,2013-05-03 21:11:00,
2013-05-03 17:22:00,55.0,44.0,30.42,WNW,285,1.0,4.0,67,0.00,,,0.00,,2013-05-03 21:22:00,
2013-05-03 17:33:00,54.0,43.0,30.42,ENE,63,2.0,4.0,65,0.00,,,0.00,,2013-05-03 21:33:00,
2013-05-03 17:42:00,54.0,43.0,30.42,ENE,63,2.0,4.0,65,0.00,,,0.00,,2013-05-03 21:42:00,
2013-05-03 17:53:00,55.0,43.0,30.41,West,264,2.0,3.0,64,0.00,,,0.00,,2013-05-03 21:53:00,
2013-05-03 18:03:00,55.0,43.0,30.41,ESE,103,1.0,3.0,65,0.00,,,0.00,,2013-05-03 22:03:00,
2013-05-03 18:13:00,55.0,43.0,30.41,ESE,103,1.0,3.0,65,0.00,,,0.00,,2013-05-03 22:13:00,
2013-05-03 18:22:00,54.0,43.0,30.41,NNE,18,1.0,3.0,65,0.00,,,0.00,,2013-05-03 22:22:00,
2013-05-03 18:32:00,54.0,42.0,30.40,ENE,65,1.0,6.0,64,0.00,,,0.00,,2013-05-03 22:32:00,
2013-05-03 18:42:00,54.0,42.0,30.40,ENE,65,1.0,6.0,64,0.00,,,0.00,,2013-05-03 22:42:00,
2013-05-03 18:52:00,54.0,43.0,30.40,ESE,117,0.0,3.0,65,0.00,,,0.00,,2013-05-03 22:52:00,
2013-05-03 19:02:00,53.0,42.0,30.40,North,356,0.0,2.0,67,0.00,,,0.00,,2013-05-03 23:02:00,
2013-05-03 19:11:00,53.0,42.0,30.40,North,356,0.0,2.0,67,0.00,,,0.00,,2013-05-03 23:11:00,
2013-05-03 19:22:00,54.0,43.0,30.39,WSW,253,0.0,0.0,67,0.00,,,0.00,,2013-05-03 23:22:00,
2013-05-03 19:32:00,53.0,42.0,30.40,WSW,245,0.0,0.0,67,0.00,,,0.00,,2013-05-03 23:32:00,
2013-05-03 19:41:00,53.0,42.0,30.40,WSW,245,0.0,0.0,67,0.00,,,0.00,,2013-05-03 23:41:00,
2013-05-03 19:52:00,51.0,42.0,30.40,WSW,245,0.0,0.0,72,0.00,,,0.00,,2013-05-03 23:52:00,
2013-05-03 20:01:00,50.0,42.0,30.40,WSW,245,0.0,0.0,74,0.00,,,0.00,,2013-05-04 00:01:00,
2013-05-03 20:11:00,50.0,42.0,30.40,WSW,245,0.0,0.0,74,0.00,,,0.00,,2013-05-04 00:11:00,
2013-05-03 20:23:00,49.0,42.0,30.40,WSW,245,0.0,0.0,76,0.00,,,0.00,,2013-05-04 00:23:00,
2013-05-03 20:32:00,48.0,42.0,30.40,WSW,245,0.0,0.0,79,0.00,,,0.00,,2013-05-04 00:32:00,
2013-05-03 20:42:00,48.0,42.0,30.40,WSW,245,0.0,0.0,79,0.00,,,0.00,,2013-05-04 00:42:00,
2013-05-03 20:52:00,47.0,41.0,30.39,WSW,245,0.0,0.0,81,0.00,,,0.00,,2013-05-04 00:52:00,
2013-05-03 21:01:00,46.0,41.0,30.40,WSW,245,0.0,0.0,83,0.00,,,0.00,,2013-05-04 01:01:00,
2013-05-03 21:11:00,46.0,41.0,30.40,WSW,245,0.0,0.0,83,0.00,,,0.00,,2013-05-04 01:11:00,
2013-05-03 21:21:00,45.0,40.0,30.40,WSW,245,0.0,0.0,84,0.00,,,0.00,,2013-05-04 01:21:00,
2013-05-03 21:32:00,45.0,41.0,30.40,WSW,245,0.0,0.0,85,0.00,,,0.00,,2013-05-04 01:32:00,
2013-05-03 21:42:00,45.0,41.0,30.40,WSW,245,0.0,0.0,85,0.00,,,0.00,,2013-05-04 01:42:00,
2013-05-03 21:52:00,44.0,40.0,30.40,WSW,245,0.0,0.0,86,0.00,,,0.00,,2013-05-04 01:52:00,
2013-05-03 22:02:00,44.0,40.0,30.40,WSW,243,0.0,0.0,87,0.00,,,0.00,,2013-05-04 02:02:00,
2013-05-03 22:11:00,44.0,40.0,30.40,WSW,243,0.0,0.0,87,0.00,,,0.00,,2013-05-04 02:11:00,
2013-05-03 22:21:00,43.0,40.0,30.40,WSW,242,0.0,0.0,88,0.00,,,0.00,,2013-05-04 02:21:00,
2013-05-03 22:32:00,43.0,40.0,30.39,WSW,242,0.0,0.0,88,0.00,,,0.00,,2013-05-04 02:32:00,
2013-05-03 22:42:00,43.0,40.0,30.39,WSW,242,0.0,0.0,88,0.00,,,0.00,,2013-05-04 02:42:00,
2013-05-03 22:52:00,42.0,39.0,30.39,WSW,242,0.0,0.0,89,0.00,,,0.00,,2013-05-04 02:52:00,
2013-05-03 23:02:00,42.0,39.0,30.38,WSW,242,0.0,0.0,89,0.00,,,0.00,,2013-05-04 03:02:00,
2013-05-03 23:11:00,42.0,39.0,30.38,WSW,242,0.0,0.0,89,0.00,,,0.00,,2013-05-04 03:11:00,
2013-05-03 23:22:00,42.0,39.0,30.38,WSW,242,0.0,0.0,90,0.00,,,0.00,,2013-05-04 03:22:00,
2013-05-03 23:33:00,41.0,38.0,30.37,WSW,242,0.0,0.0,90,0.00,,,0.00,,2013-05-04 03:33:00,
2013-05-03 23:43:00,41.0,38.0,30.37,WSW,242,0.0,0.0,90,0.00,,,0.00,,2013-05-04 03:43:00,
2013-05-03 23:53:00,41.0,39.0,30.37,WSW,242,0.0,0.0,91,0.00,,,0.00,,2013-05-04 03:53:00,